CZ-6A DEB

Satellite information

Favourite Embed

Satellite Type and Status

DEBRISIN ORBIT

Key statistics

Satellite CZ-6A DEB at a glance.

Uptime

393

Days in orbit

Revolutions

≈ 14.1

Per day

Orbit

LEO

Low Earth Orbit

Inclination

89.1

Latest

Satellite identification and parameters

Extended collection of information and parameters for CZ-6A DEB.

Object identification

Identified? True

Debris? True

Object name: CZ-6A DEB

International designator: 2024-140ACP

Object number (NORAD): 61823

Object ID (CCSDS): 61823

Country: PEOPLES REPUBLIC OF CHINA (PRC)

Current information (Y/N): Y

RCS size: SMALL

Orbital parameters

Period: 102.367 minutes

Inclination: 89.0774 deg

SMA: 7248.806 km

Apoapsis: 956.099 km

Periapsis: 785.243 km

RAAN: 311.3257 deg

Eccentricy: 0.01178512

Argument of periapsis: 63.3716 deg

Mean anomaly: 297.9482 deg

Mean motion: 14.06705167 rev/day

Mean motion (dot): 0.00005038 rev/day2

B* drag term: 0.0028416552 1/REarth

Two-line elements (TLE)

Creation date: Sept. 3, 2025, 2:21 a.m.

Reference frame: TEME

Reference center: EARTH

Epoch: Sept. 2, 2025, 4:54 p.m. UTC

TLE line 0: 0 CZ-6A DEB

TLE line 1: 1 61823U 24140ACP 25245.70464001 .00005038 00000-0 28417-2 0 9991

TLE line 2: 2 61823 89.0774 311.3257 0117851 63.3716 297.9482 14.06705167 50225

Live tracking on map

Real-time ground track for satellite CZ-6A DEB.

In-orbit conjunctions

A list of the most updated potential collisions computed for object CZ-6A DEB.

Target Orbit TCA Probability of collision Miss distance Type
FENGYUN 1C DEB SSO 2025-06-26 22:29:27 0.0001161195 145.0 (m) DEBRIS
COSMOS 1275 DEB LEO 2025-03-23 04:34:22 0.0002589219 184.0 (m) DEBRIS
NOAA 16 DEB SSO 2025-03-05 17:36:43 0.000216059 210.0 (m) DEBRIS
THORAD AGENA D DEB SSO 2024-12-09 17:12:07 0.0001509436 799.0 (m) DEBRIS
FENGYUN 1C DEB SSO 2024-11-11 07:44:49 0.0002629584 763.0 (m) DEBRIS

Associated space launch

18 Low Earth Orbit communication satellites with Ku, Q and V band payloads for the G60 constellation operated by Shanghai Spacecom Satellite Technology (SSST) with funding backed by the Shanghai local government. Initial constellation will consist of 1296 satellites by 2027 with long term plans to expand it to 12000 satellites.

CZ-6A DEB was lifted into orbit during the mission ‘Long March 6A | G60 Polar Group 01’, on board a Long March 6A space rocket.

The launch took place on Aug. 6, 2024, 6:42 a.m. from Launch Complex 9A.

For more information about the launch, click the button.

Launch to space Long March 6A | G60 Polar Group 01
Long March 6A | G60 Polar Group 01

Agency: N/A

Status: Launch Successful

Launch date: Aug. 6, 2024, 6:42 a.m. UTC

Rocket: Long March 6A

Launch pad: Launch Complex 9A

Location: Taiyuan Satellite Launch Center, People's Republic of China

...

Latest news about this satellite

News about space launch
Brightness of first Chinese broadband constellation satellites alarms astronomers

The first satellites of a Chinese broadband constellation are significantly brighter than those of Western systems, posing a new challenge for astronomers.

News about space launch
Chinese rocket stage breaks up into cloud of more than 700 pieces of space debris

HELSINKI — A Chinese Long March 6A rocket’s upper stage has fragmented into a cloud of over 700 pieces of space debris, adding to concerns about long-term orbital safety. China […]

News about space launch
China's Thousand Sails Megaconstellation Kicks Off with Dangerous Debris Field

China's Thousand Sails Megaconstellation Kicks Off with Dangerous Debris Field


Newsletter sign-up

Weekly statistics, charts and insights to help you stay on top of the space industry.